TimeEDT,TemperatureF,Dew PointF,Humidity,Sea Level PressureIn,VisibilityMPH,Wind Direction,Wind SpeedMPH,Gust SpeedMPH,PrecipitationIn,Events,Conditions,WindDirDegrees,DateUTC
12:56 AM,53.1,-9999,N/A,29.53,10.0,WNW,24.2,35.7,N/A,,Overcast,300,2014-03-13 04:56:00
1:56 AM,50.0,-9999,N/A,29.59,10.0,WNW,21.9,36.8,N/A,,Partly Cloudy,300,2014-03-13 05:56:00
2:56 AM,46.9,34.0,61,29.63,10.0,WNW,25.3,32.2,N/A,,Clear,300,2014-03-13 06:56:00
3:56 AM,45.0,28.9,53,29.66,10.0,WNW,24.2,36.8,N/A,,Clear,300,2014-03-13 07:56:00
4:56 AM,44.1,28.0,53,29.70,10.0,WNW,21.9,28.8,N/A,,Clear,300,2014-03-13 08:56:00
5:56 AM,44.1,25.0,47,29.73,10.0,WNW,25.3,33.4,N/A,,Clear,300,2014-03-13 09:56:00
6:56 AM,42.1,27.0,55,29.77,-9999.0,WNW,17.3,24.2,N/A,,Clear,290,2014-03-13 10:56:00
7:56 AM,42.1,26.1,53,29.82,-9999.0,WNW,20.7,29.9,N/A,,Clear,290,2014-03-13 11:56:00
8:56 AM,42.1,23.0,47,29.88,-9999.0,WNW,25.3,38.0,N/A,,Clear,290,2014-03-13 12:56:00
9:56 AM,42.1,19.9,41,29.92,-9999.0,WNW,27.6,36.8,N/A,,Clear,290,2014-03-13 13:56:00
10:56 AM,43.0,18.0,37,29.94,-9999.0,WNW,26.5,35.7,N/A,,Clear,290,2014-03-13 14:56:00
11:56 AM,44.1,17.1,34,29.95,-9999.0,WNW,25.3,32.2,N/A,,Clear,290,2014-03-13 15:56:00
12:56 PM,45.0,17.1,33,29.96,-9999.0,WNW,21.9,32.2,N/A,,Clear,290,2014-03-13 16:56:00
1:56 PM,46.0,18.0,33,29.96,-9999.0,WNW,18.4,27.6,N/A,,Clear,300,2014-03-13 17:56:00
2:56 PM,48.0,17.1,29,29.98,-9999.0,WNW,21.9,35.7,N/A,,Clear,300,2014-03-13 18:56:00
3:56 PM,46.9,15.1,28,29.99,-9999.0,NW,25.3,33.4,N/A,,Clear,320,2014-03-13 19:56:00
4:56 PM,46.9,15.1,28,30.02,-9999.0,WNW,23.0,31.1,N/A,,Clear,300,2014-03-13 20:56:00
5:56 PM,46.0,10.9,24,30.06,-9999.0,NW,19.6,33.4,N/A,,Clear,310,2014-03-13 21:56:00
6:56 PM,44.1,10.9,26,30.10,-9999.0,NW,17.3,27.6,N/A,,Clear,310,2014-03-13 22:56:00
7:56 PM,42.1,12.9,31,30.14,-9999.0,NW,16.1,23.0,N/A,,Clear,320,2014-03-13 23:56:00
8:56 PM,41.0,15.1,35,30.18,-9999.0,NW,13.8,20.7,N/A,,Clear,310,2014-03-14 00:56:00
9:56 PM,39.9,16.0,38,30.22,-9999.0,NW,11.5,-,N/A,,Clear,320,2014-03-14 01:56:00
10:56 PM,39.9,15.1,36,30.25,-9999.0,North,8.1,-,N/A,,Clear,350,2014-03-14 02:56:00
11:56 PM,39.9,16.0,38,30.26,-9999.0,North,9.2,-,N/A,,Clear,350,2014-03-14 03:56:00